ECMWFFLT1_sfc_thetae_120.txt.gz
Theta_e
277 276 275 275 275 275 274 274 274 273 273 272 272 272 272 272 272 271 271 271 270 270 269 269 268 267 267 268 266 267 266 266 266 266 266 266 265 264 264 264 262 260 260 263 265 264 265 266 266 265 266 265 266 266 266 270 268 268 268 268 267 267 271
277 276 275 275 275 275 274 274 273 273 273 272 272 272 272 271 271 271 270 271 270 270 269 268 267 267 267 267 266 266 266 266 266 265 265 265 265 265 264 265 262 261 260 260 264 263 265 264 266 264 267 265 265 265 266 266 266 267 267 267 267 267 267
277 276 276 275 275 275 274 274 273 273 273 272 272 271 271 271 271 271 270 270 269 269 269 268 267 267 267 267 266 266 265 266 265 265 265 264 265 264 265 265 265 262 260 260 261 264 263 264 264 264 264 265 266 265 266 265 265 266 267 267 267 267 267
277 276 276 275 275 274 274 273 273 273 273 272 272 272 271 271 271 271 270 270 270 269 269 268 267 266 267 266 265 265 265 266 265 265 264 264 264 264 264 265 265 264 262 261 260 262 262 264 263 264 265 265 265 265 265 265 265 266 265 266 266 266 266
276 276 275 274 274 274 273 273 273 273 272 272 272 272 272 271 271 271 270 270 270 270 269 267 266 266 266 266 264 264 264 265 264 264 264 263 263 264 264 264 264 264 264 261 260 260 263 263 264 264 264 265 263 264 264 265 264 264 265 265 266 266 267
275 275 274 274 274 274 273 273 273 273 272 272 272 272 272 271 271 271 270 270 270 269 269 267 267 267 266 265 264 264 264 264 263 263 262 262 263 263 263 263 263 264 263 262 261 260 260 262 261 262 263 264 264 263 262 263 263 264 264 264 264 265 266
275 275 274 274 274 274 273 273 273 272 272 272 272 271 271 271 271 270 270 270 269 269 268 267 267 266 266 265 265 264 264 263 262 262 262 262 262 262 261 261 260 261 261 261 260 260 261 260 261 262 260 263 264 264 263 261 261 261 263 263 263 263 265
275 274 274 274 274 274 273 273 272 272 272 272 272 271 271 271 270 270 269 269 269 268 267 267 266 266 266 266 265 265 264 263 262 262 261 262 261 261 260 260 260 259 260 260 259 259 258 260 259 260 262 263 263 261 261 262 261 259 260 261 262 263 263
274 273 273 273 273 273 273 273 272 272 272 271 271 271 270 270 270 269 268 268 267 267 266 266 266 266 266 266 267 267 266 265 265 262 261 261 261 261 260 260 259 259 259 258 258 258 259 259 259 259 259 259 259 259 259 261 262 260 261 261 261 262 264
274 273 273 272 273 273 272 272 272 273 273 273 271 270 270 270 269 269 268 267 265 265 265 265 265 266 267 267 268 267 267 267 266 266 264 262 261 261 260 260 259 259 259 259 258 258 258 257 257 258 259 259 260 261 261 261 261 260 261 261 260 261 262
273 272 272 272 272 272 272 272 272 274 276 276 275 271 270 269 268 268 267 265 264 264 264 264 264 264 266 267 267 267 267 267 267 267 266 266 265 264 261 259 259 259 259 259 258 258 258 258 257 258 259 259 260 261 260 260 260 260 260 259 258 257 258
272 272 272 272 272 271 271 271 273 275 276 276 276 274 269 268 267 266 265 263 263 263 264 264 263 263 263 263 264 264 264 266 267 267 267 267 266 266 266 266 262 260 259 258 258 258 258 258 258 258 259 259 260 259 260 261 260 260 259 259 258 259 258
271 271 271 271 271 270 271 270 273 276 276 276 276 276 272 267 267 265 263 262 262 262 263 263 263 262 262 262 265 265 263 262 263 266 266 266 266 266 267 269 270 268 262 261 260 258 258 258 258 258 259 260 260 261 259 259 259 259 259 259 259 259 260
271 270 270 270 270 270 269 269 272 275 276 276 277 277 274 266 266 265 263 263 262 263 262 263 262 262 262 262 262 263 262 262 262 261 262 263 264 264 265 266 267 266 267 265 262 260 259 260 260 259 260 261 262 260 259 259 258 259 258 258 259 260 260
269 269 269 269 269 269 268 268 272 275 276 276 276 276 276 268 266 265 265 264 264 264 264 263 263 263 262 262 262 262 263 262 261 261 261 261 261 262 262 263 263 264 264 265 265 264 262 262 262 262 261 261 262 261 261 261 260 260 260 260 260 260 261
268 268 268 268 268 268 267 267 273 274 275 276 276 276 272 270 268 267 266 266 265 265 265 264 264 263 263 263 263 264 266 265 263 262 261 260 260 260 261 261 264 268 268 265 264 264 264 263 264 266 263 263 262 262 262 262 262 261 260 259 258 257 259
266 267 267 267 267 266 266 266 271 274 274 275 275 274 270 268 267 267 266 266 266 266 266 266 265 265 265 264 264 265 269 270 267 263 262 261 261 261 260 260 262 268 270 270 271 270 270 270 270 270 270 270 270 266 263 261 260 258 259 258 256 257 258
266 266 266 266 265 265 265 265 267 272 273 274 274 273 268 266 265 265 265 264 264 264 264 265 267 267 265 264 264 268 270 270 268 265 264 262 261 261 260 260 261 260 263 269 271 271 270 271 271 271 271 271 270 270 268 261 258 259 259 258 257 256 257
265 265 265 265 265 266 265 264 265 270 272 273 273 271 269 267 266 265 264 264 264 264 264 264 266 267 267 266 266 270 270 271 268 266 265 264 263 261 260 261 261 259 258 259 259 261 262 262 265 264 263 263 265 267 267 265 263 262 260 258 258 258 258
265 264 264 264 264 264 265 263 263 265 270 271 272 272 269 266 266 265 264 264 263 263 263 263 263 265 267 270 270 270 271 270 270 266 265 265 263 261 260 262 261 260 259 259 259 259 259 259 260 260 259 258 259 260 261 261 261 262 261 260 259 259 259
263 263 263 263 263 263 263 263 262 263 268 270 271 271 270 267 265 265 264 263 263 263 262 262 262 263 265 267 269 270 270 270 271 270 266 265 263 263 264 264 260 261 262 260 259 259 259 259 259 258 258 258 258 258 258 259 260 260 260 260 259 258 258
262 263 261 262 262 262 262 263 264 261 266 269 269 270 271 267 266 266 264 263 263 263 263 262 262 261 263 265 268 269 270 271 270 270 267 266 269 269 269 265 263 261 261 260 259 258 258 258 258 257 257 258 258 258 259 258 258 259 259 260 260 259 257
261 261 260 259 261 262 261 261 262 264 262 265 268 269 270 271 269 270 267 264 263 263 262 263 262 262 264 265 268 269 270 270 270 269 267 270 271 271 270 267 265 263 261 260 260 259 258 258 258 257 257 258 258 258 258 258 258 258 258 258 259 259 259
259 259 259 259 259 260 261 261 260 262 263 262 265 268 269 270 271 271 267 266 264 264 263 263 262 262 266 268 269 269 269 269 268 266 269 270 270 268 267 264 262 263 263 261 260 259 259 259 259 258 258 258 259 258 258 258 257 257 256 256 255 256 256
259 259 259 259 258 259 260 260 260 259 261 263 263 266 267 268 269 268 268 266 266 266 265 265 267 268 269 269 269 269 268 267 267 267 267 266 266 266 261 259 258 258 259 260 260 260 260 259 259 259 259 259 258 257 254 253 252 251 252 251 251 251 253
258 258 258 258 258 258 258 258 258 258 259 261 262 263 264 267 266 266 266 266 265 266 267 267 268 267 266 266 265 264 264 263 263 265 265 265 264 261 261 259 256 254 257 257 257 258 258 258 257 257 258 257 257 255 254 253 252 251 251 250 251 250 252
257 257 257 257 256 256 256 256 257 258 257 257 257 259 260 260 260 262 263 262 263 264 264 265 265 265 265 265 265 265 265 264 264 263 262 261 259 258 260 260 257 256 256 256 256 256 256 257 257 257 256 254 253 253 251 252 253 251 251 250 249 250 251
256 257 257 256 255 255 255 256 256 257 258 257 256 257 257 257 257 257 257 257 258 259 260 261 263 263 263 263 262 262 262 262 262 261 260 258 257 257 258 260 261 260 257 256 256 255 254 254 255 255 254 252 252 252 251 251 251 251 249 250 249 249 250
257 258 255 255 256 255 255 254 256 257 261 259 261 259 257 257 257 257 257 258 259 259 258 258 258 257 257 258 258 258 258 258 258 258 258 258 257 257 256 257 257 257 256 255 254 254 254 254 253 253 251 251 250 250 251 250 250 250 250 249 248 250 250
260 259 258 258 258 257 257 256 257 262 265 266 265 266 263 261 263 261 259 259 260 261 258 258 257 256 256 256 256 256 256 256 256 256 256 256 258 257 256 256 256 256 256 255 254 254 254 253 252 252 252 251 251 249 249 251 253 249 249 249 248 248 249
268 268 267 264 261 261 263 263 262 263 267 268 268 268 269 268 266 265 264 262 260 259 259 258 258 257 257 256 256 256 256 256 256 256 256 256 256 257 257 257 255 255 255 254 254 254 253 253 253 253 252 252 251 251 250 248 250 249 248 248 248 248 248
268 268 268 267 266 265 264 264 264 264 267 268 268 268 267 268 268 268 267 265 264 260 259 259 258 257 257 257 256 257 257 256 256 256 256 256 255 256 256 256 255 255 254 254 253 253 253 252 253 253 252 251 251 250 249 249 248 247 247 247 246 247 248
266 266 267 267 267 268 267 266 265 265 267 266 266 266 264 265 266 264 263 263 260 258 258 258 258 258 258 257 257 257 257 257 257 256 256 256 256 256 255 256 255 256 254 254 254 253 253 253 252 251 251 250 250 250 248 248 247 246 246 246 246 247 248
261 261 261 262 263 264 264 264 264 264 263 263 264 263 262 260 260 263 264 262 259 258 257 257 257 257 258 258 258 258 258 257 257 257 257 256 256 256 255 255 255 254 253 252 253 253 252 251 251 250 250 249 247 247 246 247 247 246 245 245 246 246 246
255 258 259 258 259 259 260 259 259 259 259 259 259 259 261 263 259 257 256 256 255 256 257 257 256 256 256 256 256 256 257 257 258 257 257 256 255 254 254 253 253 253 252 251 251 251 251 251 250 249 249 248 247 246 246 246 246 246 246 245 245 245 245
253 254 257 259 259 259 259 259 259 259 259 261 263 263 262 258 257 256 254 253 254 253 254 255 255 256 256 256 256 255 255 254 254 254 254 254 254 253 253 252 251 251 251 250 251 251 251 251 249 249 248 247 247 246 246 246 246 245 246 246 245 245 245

ECMWFFLT1_sfc_thetae_126.txt.gz
Theta_e
281 280 279 278 277 277 277 276 276 276 276 276 275 275 275 274 274 273 273 273 272 272 272 272 272 272 272 272 271 271 271 271 271 271 270 271 270 269 269 269 267 265 264 265 264 264 265 265 265 264 265 265 265 265 265 269 267 267 266 266 266 266 271
282 281 279 278 277 277 277 277 276 276 276 275 275 275 275 274 274 273 273 273 272 272 272 272 272 271 272 272 271 271 270 271 270 270 269 269 269 269 268 269 267 266 265 263 264 262 264 264 265 264 265 264 265 264 265 265 265 266 266 266 265 265 265
282 282 280 279 278 277 277 276 276 276 276 275 275 274 274 275 274 274 273 273 273 272 272 272 271 271 272 271 271 271 271 271 270 270 269 269 270 269 269 268 268 266 264 263 263 264 263 264 264 264 264 265 265 265 265 265 264 265 265 266 265 265 265
282 282 281 279 278 277 276 276 276 276 276 275 275 275 275 275 274 274 274 273 273 273 272 272 271 271 272 271 270 270 270 270 270 270 269 269 269 269 268 268 268 268 266 264 262 263 263 265 263 264 264 265 265 264 264 265 264 264 264 264 265 265 264
281 281 281 280 279 277 276 276 276 276 276 276 275 275 275 275 275 274 274 274 274 274 273 272 271 271 271 271 270 270 269 270 269 269 269 269 269 269 269 268 268 267 267 264 262 262 263 264 264 264 264 264 263 264 264 264 264 264 264 264 264 264 265
281 281 281 280 279 278 277 277 276 276 276 276 275 275 275 275 275 274 274 274 274 273 273 272 272 272 271 271 270 269 269 269 269 269 268 268 268 268 268 267 267 267 266 265 263 262 260 261 262 262 263 264 264 263 262 262 263 263 263 262 262 263 264
280 281 280 280 280 279 278 277 277 276 276 276 275 275 275 275 274 274 274 274 274 273 273 273 272 272 271 270 270 270 269 269 269 268 268 268 268 268 267 266 266 266 265 264 263 261 261 261 261 262 261 263 264 264 263 261 260 260 260 261 262 262 262
280 280 280 280 280 279 278 277 277 276 276 276 276 275 275 275 274 274 274 274 273 273 273 273 272 272 271 271 271 270 270 269 268 268 267 268 268 267 266 265 265 264 264 263 262 261 260 259 260 260 261 262 262 260 260 262 261 259 260 259 260 261 261
279 278 278 278 278 278 278 277 277 277 276 276 275 275 274 274 274 274 273 273 273 273 272 272 272 272 271 271 271 272 271 271 270 268 267 267 267 266 266 265 265 264 263 261 261 260 259 259 259 259 259 259 259 259 260 261 261 260 260 260 260 260 262
275 276 276 276 276 275 275 275 276 277 278 278 275 275 274 274 274 274 273 272 272 272 272 271 271 271 272 272 272 271 271 271 271 270 269 268 267 266 266 265 264 263 262 261 260 259 260 258 259 259 259 260 260 261 261 260 260 259 260 258 258 259 260
274 273 273 273 273 273 273 274 274 277 279 279 279 276 274 273 273 273 273 272 272 271 271 271 271 271 271 271 271 271 271 271 271 271 270 270 270 268 266 265 264 263 262 260 260 260 259 259 259 260 260 260 261 261 260 260 260 259 259 257 256 256 256
273 272 272 272 272 272 273 273 275 277 278 279 280 278 274 273 273 272 272 272 271 271 271 270 270 270 270 270 270 270 270 271 271 270 270 270 270 269 269 269 266 263 261 260 260 259 259 259 259 260 260 260 260 260 260 260 259 259 258 257 257 257 256
273 272 272 272 272 272 272 272 275 277 278 279 279 280 277 273 273 272 272 272 271 271 271 270 270 269 269 269 271 270 269 269 269 270 270 270 270 269 269 271 272 270 265 263 261 260 260 260 260 259 260 260 260 261 259 258 258 258 258 258 258 258 259
272 272 271 271 271 271 271 271 274 276 278 279 279 280 279 274 273 272 272 271 271 271 270 270 269 269 268 268 269 270 269 269 268 268 268 268 268 267 268 268 270 270 268 265 263 262 261 262 261 260 261 261 262 259 258 258 257 258 258 258 258 259 260
270 270 270 270 270 270 270 270 274 276 277 278 279 280 279 277 273 272 271 271 271 270 270 270 269 269 268 268 267 269 269 268 267 267 267 267 266 266 266 266 266 266 267 266 264 263 262 263 262 262 262 260 261 261 261 260 259 259 259 259 259 258 257
268 268 268 269 269 269 269 269 274 276 277 277 278 279 277 277 274 272 271 270 270 270 270 270 269 268 268 267 267 268 270 269 267 267 266 265 265 265 265 264 266 269 270 267 266 265 264 263 264 266 263 262 261 261 261 261 261 259 257 256 256 256 257
267 267 267 267 268 267 267 267 271 274 276 277 277 277 276 274 271 271 270 270 269 269 269 268 268 268 267 267 266 268 272 273 269 266 265 264 264 263 263 262 263 270 273 273 273 273 272 272 271 272 272 272 271 265 262 260 258 257 257 256 256 256 256
266 266 266 266 266 265 265 266 268 272 274 275 276 276 275 270 269 269 269 268 268 267 267 267 269 269 267 267 266 269 272 273 270 266 264 263 262 261 260 261 261 262 265 272 274 273 273 273 273 273 273 273 273 272 269 260 258 259 259 257 257 256 257
265 264 264 263 263 268 266 264 266 270 272 274 275 275 273 269 268 267 267 267 267 266 266 266 268 269 268 267 267 271 273 274 271 267 265 264 262 261 260 261 262 261 261 261 262 264 266 266 269 268 268 268 270 271 270 266 262 262 260 258 258 258 258
262 261 261 260 260 261 261 262 263 266 271 272 273 274 272 269 267 266 266 267 266 266 266 265 265 267 268 271 271 272 273 274 274 269 267 265 263 262 261 263 262 263 262 261 261 261 262 262 263 263 263 262 262 264 264 265 264 263 262 260 259 259 258
259 259 259 259 260 260 261 261 262 264 270 271 272 273 272 270 269 267 266 266 266 266 265 265 265 265 267 270 272 273 273 274 274 273 269 267 265 265 266 266 263 263 264 262 262 261 261 261 261 262 262 261 259 258 258 259 261 263 263 262 260 259 259
258 258 259 260 260 260 261 262 264 262 267 269 270 271 272 269 268 268 266 265 265 265 265 265 266 265 267 268 271 273 273 273 273 274 270 269 272 272 272 268 266 264 263 263 262 261 261 260 260 260 260 260 260 260 259 258 258 259 261 262 262 261 260
257 257 258 260 260 260 261 261 261 264 264 266 269 269 270 271 269 271 269 267 266 266 266 266 265 266 267 268 272 272 272 273 273 272 270 273 273 272 270 269 267 265 264 263 262 261 260 260 259 259 259 259 259 260 260 258 258 258 259 259 260 261 261
257 257 257 258 259 260 260 260 259 262 264 264 266 268 269 270 270 270 268 267 266 267 267 267 266 266 269 271 272 272 272 272 270 269 272 273 272 270 270 269 267 266 265 263 262 262 261 260 260 259 259 259 259 260 259 259 259 258 257 257 258 258 259
256 255 256 256 257 257 258 258 258 258 261 263 263 266 267 268 269 268 267 265 265 266 266 267 269 270 271 271 272 271 272 270 269 270 270 269 269 269 267 267 265 265 265 264 262 262 262 262 261 261 260 260 260 259 258 254 254 255 255 255 256 255 255
254 254 254 254 254 255 256 256 255 256 256 259 261 262 264 266 265 264 264 264 263 264 265 265 267 266 266 265 266 267 267 266 266 267 268 268 268 267 266 264 262 262 262 262 262 262 262 262 262 261 260 259 258 257 256 256 255 253 253 252 252 251 254
254 254 253 253 255 255 255 255 254 255 254 255 255 256 258 258 259 261 262 261 260 261 261 261 262 262 263 264 265 265 266 267 268 266 266 266 265 265 264 263 261 261 261 261 261 260 261 261 262 261 258 257 257 257 257 256 256 255 255 254 252 253 253
254 254 255 256 257 257 256 256 255 255 255 256 256 256 256 256 256 256 256 256 257 257 258 258 260 260 258 257 258 259 261 262 264 265 264 264 264 262 261 262 263 263 261 261 261 260 260 258 260 259 259 258 257 257 257 256 256 255 255 254 252 249 252
256 258 259 259 259 259 259 258 258 258 261 260 262 260 259 257 256 256 256 258 260 259 257 254 254 254 254 253 254 255 256 257 259 261 262 262 261 259 258 258 259 260 260 260 258 258 257 257 258 259 259 258 257 257 257 256 256 256 257 254 254 254 254
263 264 263 262 261 261 260 260 261 264 267 267 267 268 267 266 266 265 262 262 262 262 259 257 256 256 255 255 254 254 254 255 256 257 258 258 259 257 256 256 257 258 260 258 257 258 257 256 256 257 257 257 257 255 253 253 256 255 256 255 253 253 254
266 266 264 262 260 261 263 263 263 263 266 266 267 267 267 267 265 265 265 265 262 261 259 258 256 256 255 254 254 254 254 255 255 256 256 257 258 258 257 257 256 256 257 257 257 256 257 257 256 256 256 255 255 255 253 249 251 253 254 255 254 253 253
264 264 264 262 261 261 260 261 261 261 264 265 265 265 265 265 266 266 264 261 262 259 259 258 257 257 256 255 254 254 254 254 254 255 255 255 255 256 256 257 257 257 256 257 256 256 255 255 255 255 255 254 254 254 253 251 251 252 252 252 252 253 253
262 262 262 262 263 263 262 260 260 261 263 263 264 264 262 263 262 261 260 258 255 253 253 254 254 254 255 256 256 256 256 255 254 254 254 254 255 255 255 255 256 258 257 256 256 256 255 255 254 254 254 253 253 253 253 251 251 251 251 252 251 251 251
258 258 257 258 259 260 260 260 261 260 260 261 263 263 261 258 258 260 258 255 251 251 249 250 250 252 253 253 254 255 255 256 256 256 256 255 255 255 255 256 256 256 256 256 256 256 256 255 255 254 253 252 252 252 253 252 251 250 250 250 251 250 249
252 254 256 255 255 256 256 256 256 256 257 258 259 258 258 257 251 250 250 251 250 250 249 250 250 250 252 252 253 254 254 254 255 255 256 256 256 256 256 256 256 255 256 256 256 255 255 255 255 254 253 253 252 251 251 251 251 250 250 250 249 249 248
249 250 253 255 255 255 255 255 256 256 257 259 259 257 254 249 248 248 249 249 250 250 251 251 252 252 252 252 252 252 252 253 252 253 253 254 255 256 256 256 256 256 255 255 255 255 255 255 254 254 253 253 252 252 252 252 251 250 250 250 250 249 249

ECMWFFLT1_sfc_thetae_129.txt.gz
Theta_e
281 281 280 279 278 278 278 277 277 278 277 277 277 277 276 276 276 275 275 275 274 274 274 274 273 273 274 274 273 272 272 272 271 271 271 271 271 271 272 271 271 269 270 267 266 267 267 268 268 267 268 267 267 268 270 270 267 268 267 266 266 266 272
281 281 281 280 279 278 278 278 277 277 277 277 276 276 276 276 276 275 275 275 274 274 274 274 273 273 273 274 273 273 272 272 271 271 271 271 271 271 271 272 271 270 269 269 266 264 267 266 268 266 269 266 267 267 267 267 266 266 266 266 266 265 266
281 281 281 281 280 279 278 278 277 277 277 277 276 276 276 276 276 275 275 274 274 274 274 273 273 273 273 273 273 273 273 273 271 271 271 270 271 271 271 271 272 270 269 269 267 266 266 266 267 266 267 267 268 267 267 266 265 265 266 266 265 265 265
281 281 281 281 281 280 279 278 278 277 277 277 276 276 276 276 276 275 275 275 274 274 274 273 273 273 273 273 272 272 272 272 272 271 270 270 271 271 271 271 271 271 270 269 268 266 265 267 265 266 267 267 267 266 266 266 266 265 264 265 265 265 264
282 281 281 281 281 281 280 279 278 277 277 277 277 276 276 276 276 276 275 275 275 275 274 274 273 273 273 273 272 272 272 272 271 271 271 270 270 270 271 270 270 270 271 268 267 266 266 266 266 267 266 267 265 266 265 265 265 264 264 264 264 265 266
281 281 281 281 281 281 281 280 279 278 277 277 277 276 276 276 276 276 276 275 276 275 275 275 274 274 274 273 272 271 271 271 271 271 270 270 270 270 270 269 269 270 269 269 267 266 263 265 264 265 265 266 266 265 264 264 264 264 263 263 262 262 263
280 281 281 281 281 281 281 281 280 278 277 277 277 276 276 276 276 276 276 276 276 276 276 275 275 274 274 273 272 272 272 271 271 271 270 270 270 270 269 269 268 268 268 268 267 266 265 264 264 265 263 265 266 266 265 263 261 261 262 263 262 262 262
277 277 278 279 279 280 280 279 278 278 277 277 277 276 276 276 276 276 276 276 276 276 275 275 275 274 274 273 273 272 272 272 271 271 270 270 270 270 269 268 268 267 267 266 266 265 263 263 262 263 264 264 264 263 262 263 263 262 262 260 261 261 261
275 275 275 276 277 277 278 278 277 277 276 276 276 276 276 276 276 276 275 275 275 275 275 275 275 274 274 274 274 274 274 273 273 271 270 270 270 269 269 268 268 267 266 266 265 264 264 262 262 262 261 261 261 261 261 263 263 262 262 261 259 259 262
274 274 273 273 274 274 274 275 275 277 279 279 277 276 276 276 276 275 275 275 274 274 274 274 274 274 275 274 274 274 274 274 274 273 272 271 270 269 269 268 267 266 266 265 264 264 263 261 261 261 261 261 262 263 263 262 262 260 260 259 258 257 260
274 273 273 273 273 273 273 273 274 277 278 280 281 278 276 275 275 275 275 275 274 274 274 273 274 273 274 274 274 274 274 274 274 273 273 273 272 271 269 268 267 266 266 265 264 264 263 262 261 261 261 261 262 263 262 262 262 261 259 257 257 256 256
272 272 272 272 272 272 272 273 275 277 278 279 280 280 277 275 275 274 274 274 274 274 273 273 272 272 272 272 272 272 272 273 273 273 273 273 272 272 272 272 269 267 266 265 264 264 263 263 262 261 261 261 262 261 262 262 261 260 259 258 258 258 258
271 271 271 271 271 271 272 271 275 277 278 278 279 280 279 276 275 274 274 273 273 273 273 273 272 271 271 271 273 272 271 271 271 273 272 272 272 272 272 273 274 273 269 267 265 264 263 263 262 261 262 262 262 263 261 261 259 259 259 259 259 259 259
269 269 269 270 270 270 270 270 273 276 277 278 278 279 279 277 275 274 273 273 273 273 272 272 272 271 270 270 271 271 271 271 270 271 271 270 270 270 270 271 273 273 271 269 267 265 264 264 263 262 263 263 265 262 261 260 258 259 258 258 259 260 260
268 268 269 268 268 268 269 269 274 275 276 277 278 278 278 277 276 274 273 273 272 272 272 272 272 271 270 270 270 270 271 270 270 270 269 269 269 269 269 269 270 271 271 270 267 266 266 265 265 264 264 263 264 263 263 262 261 260 260 259 257 256 256
267 267 267 267 267 267 267 268 273 274 275 276 276 277 276 275 275 274 273 272 272 272 272 272 272 271 270 270 269 270 272 271 270 269 269 268 268 268 269 268 270 273 273 271 269 267 266 265 265 267 264 263 263 263 263 262 261 257 255 255 255 256 255
266 267 266 266 266 266 266 267 270 273 274 275 276 275 273 274 273 272 271 272 272 272 271 271 271 271 270 270 269 270 274 275 271 268 268 268 268 268 268 267 269 273 275 275 275 273 272 272 272 272 271 271 271 265 263 260 258 256 256 256 255 256 255
265 266 265 265 264 266 265 265 267 271 273 274 274 274 272 271 270 270 270 270 270 270 270 271 272 272 270 270 269 272 274 275 272 268 268 267 267 266 266 266 266 266 269 275 275 276 275 274 274 273 273 273 273 272 268 260 258 259 257 257 257 256 257
263 263 264 263 263 265 264 263 264 269 271 273 273 272 271 270 268 267 267 267 267 267 267 267 269 271 271 269 269 273 274 275 273 269 268 267 266 265 265 266 264 263 264 265 267 269 270 271 272 271 271 270 272 272 269 263 262 262 259 258 258 257 257
261 261 262 261 261 261 260 261 262 264 270 271 272 272 270 269 267 267 266 265 264 264 264 265 265 268 270 273 273 273 274 275 275 271 269 267 266 265 264 266 264 264 264 264 264 265 266 266 266 265 265 264 266 269 269 267 264 263 262 260 259 259 258
259 259 260 260 260 260 260 260 261 262 268 269 270 271 270 267 266 267 267 265 265 263 262 263 263 264 268 270 273 274 274 274 275 274 270 268 266 266 267 267 264 264 266 263 263 262 262 262 263 262 262 261 260 261 262 265 265 265 264 263 261 260 259
258 257 258 259 259 259 259 260 262 261 265 268 269 269 270 267 265 267 267 266 266 266 265 265 265 263 266 268 271 273 274 274 274 275 272 270 272 273 272 268 265 264 264 263 262 261 261 260 261 261 261 261 261 260 261 262 263 263 264 265 264 263 261
257 257 257 258 259 259 258 258 259 262 262 265 268 268 269 269 268 270 268 265 265 265 266 267 266 266 268 268 272 273 273 274 274 273 272 274 275 274 272 271 268 265 264 263 262 262 260 260 260 260 260 260 260 261 261 261 261 261 262 263 263 264 264
256 256 256 256 257 258 258 258 257 259 261 261 264 268 269 269 269 269 266 264 262 263 264 264 265 266 269 271 272 272 273 273 272 271 273 274 273 272 272 270 269 267 265 264 263 262 261 261 261 261 260 260 261 261 261 261 260 259 259 260 261 261 262
255 254 255 255 255 256 257 257 256 256 258 261 261 265 267 268 268 266 265 262 260 261 261 264 267 269 270 271 271 270 269 267 267 269 269 269 270 270 269 268 268 267 266 264 263 263 262 262 262 262 262 263 262 262 260 256 256 257 258 258 258 258 257
255 254 254 254 255 255 256 256 256 256 256 258 259 260 262 265 264 262 263 263 262 263 264 264 266 265 265 264 264 264 264 264 264 266 267 267 268 267 267 266 266 265 265 264 264 263 263 263 263 262 262 262 261 260 258 258 257 256 255 255 255 254 255
254 255 255 255 256 256 256 255 255 255 255 257 256 256 258 258 258 260 261 259 258 259 258 259 260 260 262 262 263 263 263 263 263 263 263 263 264 264 264 264 264 264 264 263 264 263 263 264 264 263 260 259 259 259 259 258 258 257 257 255 255 255 255
256 257 258 258 259 257 256 256 254 255 257 259 260 260 261 260 259 258 257 257 257 257 257 256 259 258 255 255 255 255 254 254 255 258 260 260 262 262 262 263 265 265 263 263 263 262 260 259 261 260 260 259 258 258 257 257 257 257 256 255 254 252 254
260 261 260 259 257 257 256 257 257 258 262 262 264 264 263 263 263 262 260 261 262 261 258 254 253 252 253 251 253 253 253 253 253 254 256 256 258 261 260 259 260 262 262 261 261 260 260 259 260 259 260 259 258 258 258 257 256 256 256 254 255 255 255
262 262 260 258 257 257 257 258 259 262 264 265 265 266 265 265 266 265 261 261 261 261 258 257 255 254 253 253 251 251 251 252 252 253 254 254 257 256 256 257 258 259 260 259 259 259 259 258 259 259 259 259 259 258 258 258 258 257 257 256 255 254 255
264 264 261 260 257 259 261 261 260 260 264 265 265 266 264 263 263 263 260 259 257 254 253 253 253 254 254 253 252 252 252 252 252 253 254 254 255 255 255 256 255 256 257 258 258 258 258 258 258 258 259 258 258 258 257 256 257 257 257 256 256 255 254
263 263 262 260 260 259 258 259 259 259 263 263 264 264 261 262 262 262 259 256 256 250 250 250 250 250 251 252 252 253 253 252 252 252 252 253 254 255 256 256 256 256 255 257 258 258 258 258 258 258 257 257 257 257 257 256 255 255 255 256 256 255 254
261 260 260 261 261 261 260 258 258 259 261 262 262 262 257 258 259 257 256 254 250 245 248 247 248 248 249 250 251 252 252 253 253 253 253 252 253 253 254 255 256 257 256 256 256 257 257 257 257 256 256 256 256 256 256 255 254 254 254 254 254 253 252
256 256 255 256 257 258 258 258 259 259 259 260 260 259 257 255 254 256 254 253 248 248 246 246 247 248 249 250 251 252 252 252 252 252 252 252 253 253 254 255 255 254 255 256 256 256 257 257 257 256 255 255 255 255 256 255 254 253 253 252 253 253 252
250 252 254 253 253 254 255 254 254 254 255 256 256 254 254 254 247 246 247 248 248 248 248 248 249 249 249 250 250 250 251 251 251 251 251 251 251 251 252 253 254 255 255 255 256 256 256 256 256 256 255 255 254 254 253 254 253 252 252 252 252 252 251
247 247 251 253 252 253 253 253 253 253 254 257 256 254 251 245 244 244 245 245 246 246 247 247 247 248 248 248 248 249 249 250 250 250 250 250 251 251 251 251 252 253 254 255 255 255 256 256 256 256 255 255 255 254 254 254 253 252 251 252 252 251 251

ECMWFFLT1_sfc_thetae_132.txt.gz
Theta_e
280 280 280 280 279 279 278 278 278 278 278 278 277 278 278 278 277 277 277 277 277 277 276 276 275 275 276 276 275 275 275 274 274 273 273 273 272 272 272 272 271 271 271 269 266 267 268 269 269 268 269 269 269 270 274 274 271 271 272 272 271 272 277
280 280 280 280 280 279 279 278 278 278 278 277 277 277 278 277 277 277 277 277 276 277 276 276 275 275 275 276 275 275 274 274 274 273 272 272 271 271 271 273 272 271 271 271 267 265 267 267 269 267 269 268 269 268 271 270 269 270 271 270 269 268 270
280 280 280 280 280 280 279 279 278 278 278 278 277 277 277 277 277 277 277 276 276 276 277 276 275 275 276 275 274 274 275 275 274 273 272 272 272 271 272 272 273 272 271 271 270 267 266 266 267 267 268 268 269 269 270 269 268 268 269 269 268 267 267
280 280 280 280 280 280 280 279 279 279 278 278 278 277 277 278 277 277 277 277 276 277 276 276 275 275 275 275 274 274 274 274 274 273 272 272 272 272 272 272 273 273 272 271 271 268 267 268 266 268 268 269 269 269 269 269 269 268 267 267 267 266 265
279 279 279 279 280 280 280 280 280 279 278 278 278 278 278 277 278 277 277 277 277 277 276 276 275 275 275 275 274 274 274 274 273 273 273 272 272 272 272 272 273 272 273 271 271 270 268 268 267 268 268 269 267 268 268 268 267 267 266 266 266 266 266
276 277 277 278 278 279 279 280 280 280 279 278 278 278 278 278 277 277 277 277 277 277 277 276 276 276 275 274 274 273 273 273 273 273 273 272 272 272 272 272 272 272 272 272 271 271 266 267 266 266 266 267 267 267 266 266 266 266 265 264 264 264 265
275 275 276 276 277 277 278 278 279 279 278 278 278 277 277 277 277 277 277 277 277 277 277 276 276 276 275 274 274 274 274 274 273 273 273 273 272 272 271 271 271 271 271 271 270 270 268 266 266 266 264 266 267 268 267 265 264 263 264 264 265 264 264
273 274 274 274 275 275 276 276 276 277 277 277 277 277 277 277 276 276 277 277 277 277 277 276 276 276 276 275 275 275 274 274 273 274 273 273 272 272 271 270 270 270 270 269 269 269 268 266 265 265 265 266 266 264 266 266 264 263 264 263 264 265 264
273 273 273 273 274 274 275 274 274 275 275 276 276 276 276 276 276 276 276 276 276 276 277 277 277 276 276 276 276 276 276 275 275 274 273 273 272 271 271 270 270 269 269 268 268 268 269 265 264 264 263 263 263 263 263 265 265 265 266 265 263 263 265
272 272 271 271 272 273 273 273 274 275 278 279 278 277 276 276 276 276 276 276 276 276 276 276 276 276 277 277 277 276 276 276 276 276 275 273 273 271 271 270 269 269 268 268 267 267 268 265 264 264 263 263 264 265 265 265 265 263 264 263 263 262 261
270 270 270 270 270 270 271 272 273 276 278 279 280 279 277 276 276 276 275 275 275 275 275 275 276 276 276 276 276 276 276 276 276 276 275 275 275 274 272 270 269 269 269 268 267 268 267 267 265 265 265 264 264 265 264 265 265 264 264 262 260 259 258
268 268 269 269 269 269 270 270 273 276 278 279 279 279 278 277 276 275 275 275 275 275 275 275 275 275 275 275 275 275 275 276 276 276 276 276 275 274 274 274 272 270 269 268 268 267 267 267 266 265 265 264 265 264 264 264 264 264 263 262 261 261 260
267 267 267 267 267 267 268 269 272 276 277 278 278 279 278 277 277 276 275 275 275 274 274 274 274 274 274 274 275 275 275 274 274 276 275 275 275 274 274 275 276 275 272 271 269 268 267 267 267 265 265 266 265 266 264 264 263 263 263 263 262 261 261
266 266 266 266 266 266 266 267 271 275 276 277 277 278 277 276 275 275 275 274 274 274 274 274 274 273 273 273 272 273 273 273 273 273 273 273 273 273 273 274 275 275 274 273 271 269 268 269 268 267 267 266 267 265 263 263 262 263 262 262 262 263 263
263 264 265 264 264 264 265 266 272 274 275 276 276 277 275 273 273 273 273 273 273 273 273 273 273 273 273 273 272 272 272 272 272 272 272 272 272 272 272 272 272 273 273 273 272 270 270 270 269 268 268 267 267 266 266 266 264 264 263 263 261 258 257
263 263 263 263 263 263 263 265 271 272 274 275 275 275 272 272 271 270 271 271 271 272 273 273 273 272 272 272 272 272 273 273 272 271 271 270 271 271 271 271 273 275 276 274 273 271 271 270 269 271 268 267 267 266 266 266 264 262 260 259 257 258 256
262 263 262 262 262 262 262 262 267 271 272 274 275 273 270 270 269 269 269 269 269 269 270 270 271 272 271 272 271 272 274 276 273 270 270 269 269 270 270 270 271 275 277 277 277 276 275 275 274 274 274 273 273 268 267 264 262 260 259 258 256 256 255
261 261 261 261 260 262 261 261 264 269 271 273 273 272 269 268 267 267 267 267 268 268 268 269 271 271 271 271 270 273 275 276 274 270 269 269 269 268 268 269 270 270 272 277 277 277 277 276 276 275 275 275 274 273 269 263 261 261 259 258 259 257 257
259 259 260 260 261 263 261 260 262 266 270 271 272 271 268 267 266 265 265 266 266 267 267 267 268 269 270 271 271 274 274 275 274 272 270 269 268 267 267 268 269 268 268 269 270 272 273 272 274 273 272 272 272 272 269 265 264 263 260 259 259 259 257
257 257 259 260 260 260 260 259 260 263 269 270 271 271 268 266 264 264 264 264 265 264 264 265 265 267 269 271 272 273 274 275 275 273 271 269 268 267 267 269 268 268 268 268 268 269 270 270 271 272 271 271 271 271 270 266 265 263 262 261 260 260 259
256 257 257 258 259 259 259 259 260 261 267 269 270 271 269 265 265 264 265 265 265 263 261 264 264 264 267 269 271 272 273 274 275 275 273 270 268 269 269 271 267 267 269 267 267 267 267 268 268 268 267 268 269 269 270 267 265 265 263 262 261 260 260
255 255 256 257 258 258 258 259 261 260 264 268 269 270 270 267 266 267 266 263 262 262 262 263 264 264 266 268 270 271 272 273 274 274 273 272 273 274 274 271 269 267 267 267 266 265 265 265 265 265 264 264 264 265 266 267 266 265 265 265 264 263 261
254 254 255 256 257 257 257 258 258 261 261 264 267 269 269 269 268 269 266 262 260 259 260 261 261 263 265 266 270 271 272 272 273 273 271 274 274 273 273 272 270 267 266 265 265 264 263 263 263 263 263 263 263 263 263 264 265 265 265 265 265 265 265
253 253 253 254 255 257 257 257 256 258 261 261 264 267 268 269 269 269 265 262 259 259 260 260 259 261 267 269 270 271 271 271 268 267 270 270 269 268 269 269 269 268 266 265 264 264 263 263 263 262 262 263 264 264 264 264 264 264 265 265 265 265 265
253 253 253 253 254 255 257 257 256 256 258 261 261 265 267 268 268 266 264 261 259 259 259 262 267 268 268 268 268 268 266 264 264 265 265 265 266 266 265 266 267 267 266 264 263 263 263 263 263 263 263 264 264 264 264 262 262 262 262 262 262 261 260
254 254 254 253 253 254 255 256 256 257 257 259 260 261 264 266 265 263 264 263 260 262 262 262 264 262 262 262 262 261 260 260 261 262 262 262 263 261 262 263 264 265 265 265 264 264 263 263 263 262 263 263 263 262 261 261 260 260 258 258 258 257 257
256 257 255 255 254 254 254 254 255 256 256 258 259 260 261 262 261 262 261 259 258 259 257 259 260 259 261 260 261 260 260 259 259 258 257 256 256 257 258 260 261 263 263 264 264 264 264 265 265 264 262 261 261 261 261 261 260 259 258 257 258 258 257
257 258 256 254 254 254 253 254 253 255 257 259 261 261 262 262 262 259 257 257 257 256 257 256 257 256 253 252 252 252 251 252 252 254 255 254 254 255 256 259 261 263 263 263 264 264 263 262 264 262 262 261 260 260 259 259 259 259 258 257 256 255 256
260 260 258 256 254 253 254 255 255 256 260 261 263 262 260 260 261 259 256 257 258 256 254 253 252 252 252 251 251 251 250 251 251 252 253 252 253 253 254 254 252 255 257 260 261 262 262 261 262 261 262 260 260 260 259 258 258 259 258 256 257 256 257
260 260 258 257 254 254 256 256 256 260 263 264 264 264 261 261 263 261 257 256 256 255 250 250 249 250 249 250 249 250 250 250 250 250 251 252 255 253 252 253 253 254 255 257 258 260 261 260 261 260 260 260 260 259 259 258 259 257 258 256 256 256 257
263 262 260 258 256 257 259 259 258 258 262 263 263 263 261 261 259 259 256 255 253 249 248 247 247 248 248 249 249 249 249 250 250 251 250 250 251 252 253 253 253 254 254 255 256 257 259 259 260 260 260 259 259 259 259 258 258 258 257 257 256 255 255
261 261 260 258 258 257 256 257 257 257 261 262 262 261 258 260 260 259 256 253 252 246 247 246 246 247 247 248 248 249 250 250 250 250 249 249 250 250 251 252 252 254 254 255 255 256 257 258 258 259 259 259 258 258 258 257 257 257 257 257 257 256 255
258 258 258 258 259 259 259 256 256 257 260 260 260 259 254 256 256 254 253 251 247 243 245 244 245 245 245 247 247 248 248 249 249 249 250 250 249 249 250 250 251 253 253 254 255 256 256 257 257 257 257 257 257 257 257 257 257 257 257 257 256 256 254
254 254 253 254 255 256 256 255 257 257 257 258 258 256 255 252 252 254 252 249 245 245 244 244 244 245 245 245 247 247 247 247 248 248 249 249 249 249 250 250 251 251 252 253 253 254 255 256 256 256 256 256 257 257 257 257 256 256 256 256 256 256 254
247 250 252 251 251 252 253 252 252 253 254 254 253 252 253 252 244 244 244 245 244 244 243 244 244 243 244 244 244 245 246 246 246 246 247 247 247 248 248 249 250 250 251 251 251 252 253 254 255 256 256 256 256 255 255 256 256 255 256 255 255 255 253
244 243 249 251 251 251 252 252 252 252 253 254 253 251 248 243 242 241 242 243 242 242 244 242 243 243 242 242 242 242 243 244 244 245 245 245 246 246 246 246 248 250 250 249 249 250 251 252 253 255 256 256 256 255 255 256 255 255 254 255 255 255 254